Regional Weather Roundup
Issued by NWS Kansas City/Pleasant Hill, MO

Home | Current Version | Previous Version | Text Only | Print | Product List | Glossary On
Versions: 1 2 3 4 5 6 7 8 9 10 11 12 13 14 15 16 17 18 19 20 21 22 23 24 25 26 27 28 29 30 31 32 33 34 35 36 37 38 39 40 41 42 43 44 45 46 47 48 49 50
000
ASUS43 KEAX 121411
RWREAX

WEATHER ROUNDUP FOR EASTERN KANSAS AND NORTHWEST MISSOURI
NATIONAL WEATHER SERVICE KANSAS CITY/PLEASANT HILL MO
900 AM CDT SAT JUL 12 2014

KSZ040-057-103>105-MOZ028-029-037-043-121500-
...KANSAS CITY METROPOLITAN AREA...

CITY           SKY/WX    TMP DP  RH WIND       PRES   REMARKS
K.C. INTL      MOSUNNY   79  68  69 SW12      30.05S
K.C. DOWNTOWN  SUNNY     83  66  56 SW13      30.04S
LEES SUMMIT    SUNNY     80  67  64 SW10      30.08R
OLATHE - IXD   SUNNY     81  67  62 SW15G23   30.07S
OLATHE - OJC   SUNNY     80  67  64 SW14G21   30.07R
LAWRENCE       SUNNY     82  67  60 SW8       30.06R

$$

MOZ001>008-011>017-020>025-030>033-038>040-044>046-053-054-121500-
...NORTHERN AND CENTRAL MISSOURI...

CITY           SKY/WX    TMP DP  RH WIND       PRES   REMARKS
ST. JOSEPH     MOSUNNY   79  69  71 SW7       30.04R
MOSBY          MOSUNNY   81  68  65 S6        30.05S
WARRENSBURG    MOSUNNY   81  68  65 S9        30.08S
WHITEMAN AFB   NOT AVBL
CLINTON        SUNNY     81  72  74 SW9       30.10S
SEDALIA        MOSUNNY   82  70  66 SW14      30.10S
WARSAW         NOT AVBL
MARSHALL         N/A     81  72  74 SW9       30.08S HAZE
CHILLICOTHE      N/A     80  69  69 W3        30.06R
MOBERLY        CLOUDY    79  70  73 S6        30.09R
KIRKSVILLE     CLOUDY    77  72  84 CALM      30.07F

$$

MOZ041-047>049-056>058-063>065-088>090-097-121500-
...EASTERN AND SOUTHERN MISSOURI...

CITY           SKY/WX    TMP DP  RH WIND       PRES   REMARKS
ST. LOUIS INTL CLOUDY    82  73  74 SW9G17    30.11S
SPIRIT OF STL  CLOUDY    79  73  82 SW9       30.09S
COLUMBIA       PTSUNNY   81  72  74 SW10      30.10S
JEFFERSON CITY SUNNY     81  72  74 S6        30.10S
MEXICO         CLOUDY    79  79 100 SW6       30.09S
HANNIBAL       PTSUNNY   84  70  61 SW8       30.08S
ROLLA          MOSUNNY   79  71  76 SW10      30.14R
LEBANON        SUNNY     82  68  61 SW9       30.17S
OSAGE BEACH    PTSUNNY   81  70  69 SW5       30.13S
SPRINGFIELD    SUNNY     80  68  66 SW12      30.16S
BRANSON        SUNNY     84  70  61 SW7       30.20R
NEVADA         SUNNY     79  70  73 S9        30.12F
JOPLIN         SUNNY     82  67  60 S13       30.14S
WEST PLAINS    MOSUNNY   80  72  76 SW6       30.20S

$$

IAZ060-094-KSZ022-034>040-054-083-096-NEZ052-066-093-121500-
...KANSAS...SOUTHEAST NEBRASKA AND IOWA...

CITY           SKY/WX    TMP DP  RH WIND       PRES   REMARKS
TOPEKA         MOSUNNY   83  66  56 SW7       30.05R
MANHATTAN      SUNNY     83  65  54 SW13      30.02S
EMPORIA        SUNNY     82  65  56 SW16      30.07R
CHANUTE        SUNNY     80  66  62 SW13      30.10S
WICHITA        MOSUNNY   79  65  62 SW12      30.09R
OMAHA          CLOUDY    75  68  78 SE8       29.99S
LINCOLN        PTSUNNY   80  68  66 S8        29.99F
FALLS CITY     PTSUNNY   79  71  76 SE5       30.02R
LAMONI         PTSUNNY   77  72  84 SE6       30.05F
DES MOINES     CLOUDY    74  70  87 S9        30.02F

$$




USA.gov is the U.S. government's official web portal to all federal, state and local government web resources and services.